Temp
16 16 16 17 16 16 17 17 17 17 17 17 17 18 18 18 18 18 20 19 18 19 19 19 19 20 21 22 22 23 27 28 27 27 27 26 28 26 25 27 26 26 26 25 23
16 17 17 17 17 17 17 17 17 17 17 18 18 18 18 18 19 20 19 19 19 19 19 20 21 21 23 23 23 26 27 28 27 27 27 26 26 26 26 27 26 26 25 24 24
16 17 17 17 17 17 17 17 18 17 18 18 18 18 18 19 21 20 19 19 19 20 19 20 21 22 24 24 24 25 27 25 25 25 25 26 26 25 27 27 27 27 26 25 25
17 17 17 18 18 18 18 18 18 18 18 18 18 18 18 19 23 20 19 19 19 19 20 21 22 23 25 25 23 25 24 24 24 23 24 25 25 26 26 27 25 24 24 24 24
16 17 17 18 18 18 18 18 18 18 18 18 18 19 19 20 21 19 19 19 19 19 20 21 23 23 25 24 23 25 24 23 23 23 23 24 24 25 25 25 24 24 23 23 24
17 17 17 18 18 19 18 18 18 18 18 18 18 19 19 22 20 19 19 19 19 20 20 21 22 22 23 24 24 23 24 24 23 24 23 24 25 23 25 23 24 23 24 24 23
17 17 17 18 19 19 19 18 18 18 18 18 18 18 18 22 20 19 19 20 20 20 21 20 20 22 22 23 22 23 24 24 24 24 24 23 24 24 25 23 24 24 24 24 23
17 17 18 18 19 19 19 19 18 18 18 18 18 18 21 20 19 19 20 20 19 19 19 19 20 21 22 21 22 24 24 25 25 24 23 24 25 26 24 24 24 24 24 24 24
17 18 18 18 19 20 19 19 19 18 18 18 17 17 22 20 20 20 20 21 20 19 19 19 20 21 21 24 24 24 25 24 24 24 24 24 25 26 24 24 24 23 24 24 24
17 18 18 19 19 20 19 19 18 18 18 17 17 18 20 21 20 20 20 20 20 20 20 20 22 23 24 24 24 25 24 24 24 25 24 24 25 26 25 24 24 24 24 24 24
16 17 18 19 19 19 19 19 19 18 17 20 22 21 20 20 20 20 20 20 20 21 23 22 23 23 25 24 24 23 23 23 24 24 22 24 24 25 25 25 25 24 24 24 23
16 16 17 18 19 19 18 19 18 17 19 20 19 19 20 19 21 21 20 21 22 23 22 22 23 24 23 22 22 22 23 23 24 24 23 23 24 25 25 25 24 24 24 24 23
15 16 17 18 19 18 18 17 17 17 19 21 19 19 19 19 20 22 20 22 22 23 23 22 24 22 22 22 22 23 22 23 23 23 23 23 23 25 25 24 24 23 23 22 22
15 16 17 18 18 18 17 17 17 17 21 23 22 20 19 20 21 21 21 22 23 22 23 23 23 22 22 22 23 22 24 23 22 22 22 23 22 25 25 25 25 23 23 23 22
15 16 17 17 17 17 17 17 17 16 21 22 22 20 20 22 22 21 21 21 22 23 22 23 22 22 22 23 23 22 23 22 22 22 22 23 22 24 24 23 24 24 23 22 22
15 15 16 17 16 16 17 17 16 21 20 22 22 22 22 22 22 21 21 20 21 23 23 22 23 22 23 23 23 23 22 22 22 22 21 23 23 24 25 24 25 24 23 22 22
15 15 15 16 15 16 16 17 20 20 23 21 21 21 21 21 22 22 22 22 21 21 21 23 23 23 23 22 23 21 21 21 21 22 21 22 21 24 24 24 25 24 23 22 21
15 15 14 15 15 16 16 20 19 20 21 20 20 20 20 21 22 21 21 22 23 22 22 21 21 23 23 22 22 23 22 21 20 21 23 21 20 23 24 24 23 23 23 22 21
15 14 13 14 15 16 17 19 20 19 18 18 20 20 21 20 20 20 21 21 22 22 20 21 21 24 22 23 23 22 20 22 21 22 21 22 23 24 23 23 23 22 22 21 20
14 13 13 15 15 15 19 18 18 16 16 18 18 19 19 19 18 19 20 21 20 21 21 20 19 22 22 21 21 20 23 19 20 18 18 21 22 23 22 22 23 23 22 21 20
13 14 13 15 15 17 18 17 16 15 14 16 17 17 17 17 17 18 18 20 18 18 19 20 19 19 21 19 20 20 20 20 20 20 19 19 22 23 22 22 23 23 22 21 20
10 17 13 14 17 15 16 13 13 14 14 15 15 15 15 15 15 16 17 18 16 16 17 18 16 17 18 20 20 19 20 19 16 16 19 20 20 23 22 22 22 21 21 20 19
10 11 11 13 15 14 13 13 13 13 12 13 14 13 13 13 13 15 16 16 15 14 14 15 15 14 16 19 19 18 19 19 19 18 16 17 19 21 21 21 20 20 20 20 19
9 14 12 10 9 11 11 12 13 11 11 11 12 12 12 13 13 13 13 14 12 12 11 12 13 12 11 15 15 13 14 16 17 15 17 17 18 20 20 19 20 19 19 18 17
8 10 6 12 11 9 10 11 11 10 10 10 11 12 10 10 11 12 13 12 12 12 12 12 11 13 13 14 13 11 10 11 13 15 16 18 18 20 20 20 19 18 17 16 16
7 8 8 9 8 10 8 10 10 9 9 10 9 10 10 9 9 9 10 10 10 12 12 12 10 11 11 12 13 11 11 8 9 8 9 12 16 19 18 18 18 16 16 15 15
3 4 4 8 10 10 10 9 9 8 9 8 9 9 9 9 8 8 8 8 9 9 10 10 10 9 8 12 12 11 12 12 14 12 12 10 13 17 18 17 16 15 14 14 14
Height
1533 1530 1528 1525 1523 1521 1520 1519 1518 1517 1516 1516 1516 1515 1514 1512 1511 1512 1513 1513 1512 1511 1511 1512 1513 1514 1514 1513 1513 1511 1501 1497 1500 1499 1502 1506 1503 1508 1510 1507 1508 1510 1511 1515 1515
1533 1530 1528 1526 1524 1522 1520 1519 1518 1517 1517 1516 1516 1515 1514 1514 1513 1514 1514 1512 1512 1511 1513 1513 1513 1513 1512 1512 1512 1506 1497 1494 1499 1500 1502 1506 1507 1508 1508 1508 1508 1510 1512 1513 1515
1534 1531 1528 1526 1524 1522 1520 1519 1518 1518 1517 1516 1516 1515 1515 1514 1515 1514 1513 1513 1512 1512 1512 1513 1513 1512 1510 1510 1510 1506 1496 1505 1508 1508 1509 1507 1508 1509 1507 1505 1506 1508 1511 1513 1514
1535 1531 1528 1525 1523 1522 1520 1519 1518 1517 1517 1516 1515 1515 1513 1514 1510 1514 1513 1513 1512 1512 1513 1513 1512 1510 1507 1506 1510 1506 1508 1508 1509 1511 1511 1509 1508 1507 1507 1505 1509 1511 1511 1512 1513
1535 1532 1528 1525 1522 1520 1519 1518 1517 1517 1516 1516 1515 1514 1514 1514 1512 1512 1513 1513 1513 1513 1513 1512 1510 1508 1505 1506 1509 1505 1508 1510 1510 1511 1511 1511 1508 1506 1505 1506 1509 1510 1511 1511 1511
1536 1532 1528 1525 1521 1519 1517 1516 1516 1515 1515 1515 1514 1513 1514 1511 1511 1512 1512 1513 1514 1514 1513 1512 1511 1510 1507 1507 1506 1508 1508 1507 1508 1508 1509 1509 1505 1508 1504 1507 1507 1508 1507 1508 1510
1536 1531 1527 1523 1520 1517 1515 1514 1514 1513 1513 1513 1513 1512 1512 1510 1510 1511 1512 1513 1513 1513 1513 1512 1512 1511 1510 1507 1510 1508 1506 1504 1505 1505 1506 1508 1504 1503 1502 1505 1505 1504 1504 1505 1506
1535 1531 1526 1522 1518 1515 1513 1512 1512 1511 1511 1511 1511 1511 1509 1507 1509 1510 1511 1512 1511 1512 1512 1512 1511 1511 1508 1509 1508 1505 1502 1499 1497 1502 1504 1506 1495 1493 1500 1501 1500 1500 1500 1500 1500
1534 1529 1525 1521 1517 1513 1511 1510 1509 1509 1508 1508 1510 1511 1506 1505 1507 1508 1509 1510 1511 1511 1511 1510 1511 1509 1509 1502 1500 1499 1493 1497 1494 1499 1498 1501 1492 1491 1497 1497 1496 1495 1495 1494 1494
1532 1528 1523 1519 1515 1512 1510 1509 1507 1506 1506 1506 1507 1512 1505 1504 1506 1507 1508 1509 1510 1510 1510 1510 1507 1502 1499 1497 1495 1488 1495 1494 1495 1492 1497 1493 1489 1487 1490 1490 1489 1489 1488 1487 1488
1529 1525 1521 1517 1513 1510 1509 1508 1509 1507 1504 1502 1500 1499 1501 1503 1503 1506 1507 1508 1509 1508 1502 1505 1502 1497 1489 1492 1494 1496 1496 1495 1490 1491 1497 1490 1486 1482 1483 1483 1481 1481 1482 1483 1484
1527 1522 1518 1514 1512 1509 1509 1509 1509 1510 1502 1498 1497 1497 1499 1502 1502 1503 1505 1506 1505 1501 1502 1502 1497 1490 1494 1498 1499 1497 1495 1492 1488 1489 1493 1487 1481 1476 1476 1475 1477 1477 1477 1478 1479
1526 1520 1515 1511 1509 1509 1508 1508 1507 1505 1501 1494 1494 1494 1495 1499 1498 1498 1502 1501 1500 1498 1496 1497 1490 1495 1496 1494 1497 1492 1493 1489 1491 1486 1487 1484 1478 1463 1466 1469 1472 1474 1475 1476 1476
1524 1518 1513 1509 1509 1507 1508 1506 1505 1505 1495 1487 1489 1492 1494 1495 1497 1496 1497 1499 1497 1495 1492 1492 1490 1494 1493 1492 1490 1492 1482 1487 1488 1490 1488 1479 1481 1461 1458 1460 1464 1468 1470 1470 1472
1523 1517 1513 1508 1508 1508 1506 1505 1505 1504 1504 1486 1489 1492 1493 1493 1491 1493 1496 1497 1493 1491 1496 1486 1488 1490 1490 1486 1485 1487 1484 1486 1484 1483 1480 1476 1480 1458 1453 1459 1458 1461 1465 1468 1469
1520 1515 1511 1509 1506 1506 1504 1504 1505 1501 1499 1484 1487 1488 1490 1489 1488 1492 1493 1495 1493 1489 1486 1486 1482 1486 1482 1481 1483 1482 1486 1482 1482 1480 1481 1465 1467 1452 1444 1451 1451 1456 1462 1465 1466
1517 1513 1510 1507 1507 1504 1503 1505 1501 1499 1483 1489 1490 1490 1489 1488 1486 1486 1486 1489 1490 1490 1484 1475 1475 1477 1481 1480 1478 1483 1484 1484 1477 1474 1472 1461 1468 1451 1446 1450 1449 1454 1459 1463 1465
1516 1511 1509 1506 1505 1504 1504 1501 1504 1490 1489 1492 1492 1490 1490 1485 1483 1484 1485 1483 1478 1480 1478 1480 1479 1467 1472 1475 1472 1467 1476 1477 1482 1469 1453 1461 1466 1451 1445 1448 1452 1454 1456 1461 1464
1513 1510 1510 1506 1505 1504 1504 1497 1491 1496 1500 1498 1491 1488 1484 1487 1490 1487 1483 1481 1476 1475 1482 1476 1470 1462 1471 1470 1470 1468 1476 1466 1468 1459 1464 1454 1444 1437 1446 1448 1450 1452 1454 1458 1462
1511 1508 1509 1506 1504 1504 1499 1498 1499 1507 1504 1499 1497 1490 1491 1488 1494 1486 1484 1479 1480 1480 1478 1475 1478 1466 1465 1472 1469 1470 1462 1474 1469 1482 1471 1447 1440 1439 1440 1444 1445 1447 1450 1454 1459
1512 1510 1508 1505 1504 1503 1496 1497 1504 1508 1509 1504 1499 1498 1496 1496 1494 1491 1486 1480 1489 1487 1482 1475 1474 1468 1463 1468 1466 1464 1465 1463 1462 1457 1461 1453 1439 1429 1434 1438 1439 1440 1444 1449 1455
1515 1508 1508 1504 1504 1506 1502 1512 1513 1509 1510 1507 1505 1502 1502 1500 1498 1495 1490 1486 1492 1493 1486 1478 1481 1473 1466 1458 1460 1462 1456 1458 1472 1467 1454 1446 1434 1428 1434 1439 1441 1443 1446 1449 1453
1522 1518 1513 1508 1506 1510 1515 1514 1514 1514 1513 1510 1507 1510 1509 1507 1506 1492 1490 1491 1496 1498 1494 1491 1479 1482 1464 1455 1453 1457 1453 1450 1448 1449 1460 1452 1432 1431 1435 1439 1443 1444 1445 1447 1449
1526 1517 1517 1517 1523 1520 1519 1514 1513 1518 1516 1514 1512 1510 1511 1506 1504 1498 1496 1498 1500 1501 1500 1499 1485 1489 1485 1468 1466 1469 1465 1456 1447 1455 1435 1441 1429 1428 1427 1436 1438 1439 1441 1442 1447
1530 1528 1529 1518 1520 1524 1522 1520 1515 1516 1518 1517 1512 1510 1513 1510 1504 1501 1496 1499 1501 1498 1496 1493 1484 1479 1472 1467 1472 1476 1477 1470 1457 1449 1439 1424 1425 1419 1421 1426 1432 1437 1437 1441 1443
1533 1533 1530 1526 1526 1522 1523 1517 1518 1520 1521 1513 1513 1511 1514 1513 1511 1506 1503 1502 1496 1493 1490 1489 1484 1483 1470 1467 1464 1463 1459 1465 1467 1465 1457 1445 1426 1420 1426 1425 1427 1433 1437 1439 1438
1534 1534 1534 1525 1522 1520 1517 1519 1520 1524 1517 1516 1515 1513 1510 1508 1508 1507 1504 1501 1495 1493 1490 1487 1481 1480 1467 1466 1458 1451 1444 1446 1438 1441 1441 1444 1434 1425 1417 1418 1423 1430 1433 1435 1436
Wind_Speed
17 15 14 14 13 11 7 5 5 5 5 3 3 7 6 8 13 10 5 5 6 5 6 6 4 6 6 5 3 3 6 10 10 11 8 6 6 3 1 3 5 5 7 7 6
18 16 14 13 13 12 8 5 4 5 5 4 4 6 4 8 7 6 10 10 9 8 5 5 7 9 7 5 5 8 8 5 5 3 6 5 4 1 5 5 5 4 3 2 3
20 18 16 13 11 11 9 5 3 3 3 2 3 5 3 7 5 5 7 7 8 6 5 4 7 7 6 6 4 5 5 4 8 5 3 4 7 5 7 8 6 7 6 5 5
23 20 17 15 11 9 8 5 3 1 0 1 3 6 1 9 1 7 6 7 8 10 2 3 7 9 6 7 4 7 3 4 7 5 4 6 5 11 11 10 2 5 6 8 9
23 22 19 16 12 9 7 4 2 2 2 3 3 4 2 4 5 10 8 5 5 4 4 2 6 6 8 5 6 6 7 5 5 6 8 5 10 10 11 6 6 6 7 8 10
23 22 21 19 15 10 7 5 3 2 3 4 4 4 2 7 9 9 5 2 2 1 2 2 2 3 4 4 9 3 5 6 5 5 8 10 7 5 9 6 6 6 8 10 11
24 23 21 19 17 13 8 7 6 5 6 5 5 4 6 1 8 8 5 4 4 2 1 2 2 3 3 6 2 5 10 8 9 6 6 6 10 10 7 8 10 13 13 14 13
24 24 23 21 18 13 9 7 8 8 9 7 7 5 7 10 11 9 6 6 5 3 2 2 1 1 4 2 6 10 9 12 10 7 8 6 10 12 9 11 16 18 19 20 21
24 23 23 22 19 13 7 6 7 9 10 10 6 4 6 10 9 7 8 7 6 3 4 3 4 3 6 10 8 9 10 11 8 7 3 9 10 4 10 13 18 20 22 22 22
26 22 22 22 18 12 6 7 10 9 6 4 7 5 9 9 9 7 7 8 6 6 5 7 7 8 8 9 9 5 10 8 11 8 9 13 16 12 13 16 18 20 20 18 17
28 25 20 19 16 8 5 7 4 2 4 11 5 7 3 7 10 9 8 8 6 8 9 5 9 11 9 5 8 9 10 12 8 7 9 13 15 15 15 17 14 13 13 13 13
26 26 23 18 13 5 3 1 1 5 10 12 15 17 17 6 9 13 10 10 10 11 5 7 10 8 4 6 9 11 13 13 10 10 8 15 18 16 17 17 12 10 10 12 11
27 27 24 17 8 4 1 3 4 8 7 4 4 4 8 18 13 12 15 15 10 10 10 10 7 4 10 9 10 12 13 12 13 11 12 17 20 20 7 12 13 12 12 11 11
27 27 25 18 3 7 2 5 6 5 5 6 4 4 5 8 10 16 14 13 9 10 10 9 1 7 11 11 10 13 10 12 14 13 12 2 11 9 13 12 14 20 14 12 10
26 24 22 19 9 3 5 3 3 2 5 4 6 4 6 7 2 8 13 13 14 9 7 3 8 8 11 11 8 14 6 12 14 15 16 15 11 13 4 10 11 14 12 9 6
25 20 18 18 9 4 4 3 2 6 5 5 4 3 6 10 6 4 8 12 7 14 15 18 16 10 15 11 9 9 12 13 12 13 15 19 16 10 10 9 11 11 11 10 9
23 16 13 11 8 2 3 2 5 6 3 3 2 2 5 5 5 9 12 12 11 13 15 18 19 19 15 17 15 12 15 10 12 10 11 4 7 15 2 6 8 10 14 12 11
22 11 8 10 8 3 1 5 7 4 2 3 3 8 7 4 7 7 10 13 16 18 17 18 19 14 12 19 17 13 15 12 14 12 10 8 7 5 6 13 13 12 12 14 11
23 5 7 11 2 0 7 6 4 3 6 7 9 10 10 5 5 7 12 12 14 9 16 14 20 11 6 13 12 15 11 16 20 20 16 17 22 11 13 12 12 15 16 17 13
24 3 10 11 5 2 5 3 3 7 8 6 8 4 10 9 11 8 8 6 9 4 11 14 17 16 13 8 11 14 15 11 11 16 22 16 18 10 4 13 14 14 18 19 17
16 3 11 13 3 7 6 4 2 6 11 7 5 9 12 12 9 13 7 7 11 12 18 14 17 18 18 15 18 12 16 16 15 16 17 19 14 7 3 8 12 13 19 14 15
11 2 18 6 2 3 2 4 6 8 10 4 6 7 8 8 12 13 13 11 11 16 14 9 7 15 19 17 14 17 21 17 13 17 18 18 20 12 11 10 8 10 8 12 10
12 6 11 11 2 3 4 3 4 8 7 5 4 4 5 8 8 11 10 6 15 14 10 10 8 13 19 18 17 16 25 23 23 16 23 20 20 5 3 9 11 14 11 14 19
8 4 6 12 8 5 5 2 3 6 2 6 7 6 8 10 10 9 11 10 11 19 15 8 15 18 18 23 21 20 21 25 23 16 26 21 30 25 14 12 14 20 26 22 24
7 4 3 4 4 5 4 3 4 3 3 6 4 5 7 6 12 16 11 16 21 18 20 5 19 18 24 25 20 19 20 24 23 28 27 27 26 24 20 18 18 31 22 21 24
5 5 4 7 4 5 1 2 5 3 5 5 5 4 9 13 15 20 19 16 13 11 14 14 16 15 25 22 23 24 24 24 24 25 19 26 27 25 32 34 26 19 18 16 15
5 5 3 1 2 5 3 3 3 7 6 9 10 12 15 15 14 17 21 25 25 20 19 18 17 17 26 19 22 22 22 24 26 23 25 23 27 31 26 12 11 13 12 12 14
Wind_Direction
21 14 13 17 18 19 20 32 39 56 93 106 54 16 39 74 110 100 96 128 108 115 128 139 133 160 160 165 181 218 232 203 191 192 145 156 193 127 126 118 88 105 108 115 103
21 16 8 6 11 12 14 27 53 78 103 101 53 25 103 111 112 111 105 101 97 94 106 168 162 162 162 171 181 240 244 189 144 161 183 163 244 154 221 178 166 162 158 137 135
21 15 9 2 1 8 8 16 43 81 104 102 30 17 141 149 178 133 118 97 83 86 94 140 163 189 170 191 167 176 247 145 166 169 230 238 240 226 245 225 215 226 217 226 244
17 15 10 1 354 354 7 7 13 20 355 323 345 3 107 190 285 163 132 105 95 78 71 154 183 192 191 185 175 195 160 184 159 180 230 236 278 256 243 259 246 237 233 241 243
13 11 7 1 351 339 344 355 340 332 318 309 317 346 131 203 172 156 133 111 83 72 71 120 197 196 197 173 180 232 172 191 200 233 236 247 257 266 246 235 240 233 233 230 240
9 6 3 358 348 333 316 313 311 311 305 301 304 306 283 235 183 175 167 152 169 123 67 72 128 203 175 192 233 153 210 214 204 191 202 229 235 226 211 211 226 242 241 235 240
8 3 359 355 348 333 311 298 289 294 297 300 301 294 250 139 183 190 207 214 210 204 174 124 125 232 185 182 180 203 232 194 197 179 174 244 231 224 194 226 242 248 248 246 245
4 4 358 352 348 335 320 303 294 296 292 286 282 287 250 217 205 210 214 217 219 228 199 199 189 179 246 150 198 224 236 207 164 198 157 238 265 171 235 241 259 265 262 259 253
356 356 358 354 347 338 329 321 295 286 285 290 274 243 247 209 208 209 200 196 179 188 175 181 192 237 191 223 208 199 238 222 166 214 198 222 272 225 244 266 271 266 261 260 258
351 348 347 353 349 341 328 325 310 295 275 270 229 245 226 204 188 177 183 177 187 174 175 205 217 225 216 226 244 227 233 212 249 170 239 258 258 255 261 270 275 263 256 253 255
347 344 340 342 347 342 337 345 305 230 240 257 279 243 158 180 190 197 193 188 201 227 242 203 255 228 237 246 303 280 268 265 262 262 267 266 272 271 271 274 267 243 234 235 247
347 342 341 333 341 351 1 331 31 311 297 277 260 247 240 211 208 204 193 208 207 238 191 225 236 269 240 245 250 247 256 256 259 258 269 275 274 273 273 262 245 247 233 237 239
350 344 346 335 326 347 260 192 317 329 272 295 236 239 213 205 215 209 205 212 226 235 231 271 317 293 212 224 243 240 259 270 275 289 266 267 274 256 229 224 225 244 241 239 245
351 347 355 353 353 325 198 242 308 326 271 132 162 139 155 186 219 222 207 207 218 248 252 272 113 222 233 244 244 269 257 258 272 272 273 87 285 269 241 239 243 237 222 224 231
350 346 353 2 330 314 226 228 300 311 280 112 108 143 177 210 99 179 206 215 244 221 237 267 207 222 243 253 268 274 312 273 272 270 276 259 253 274 192 227 205 201 204 199 196
349 344 347 -0 9 333 219 234 286 235 235 132 110 170 201 220 229 141 197 219 267 265 243 262 270 264 258 268 261 272 269 254 255 259 258 250 239 256 228 219 196 186 188 176 163
350 348 347 355 336 275 184 196 231 246 90 105 77 341 300 260 250 236 224 209 237 244 249 243 242 241 252 254 226 246 254 258 243 216 252 100 254 245 246 212 199 190 187 180 170
351 343 358 14 11 156 209 219 243 66 331 40 317 302 268 331 246 286 264 260 252 255 272 275 275 243 223 237 261 231 249 248 274 267 268 144 243 248 279 238 221 224 215 189 191
353 357 13 1 354 286 255 237 353 16 357 328 305 273 259 170 323 296 276 279 289 277 258 276 276 250 264 255 255 246 237 267 275 271 271 263 267 229 219 240 232 216 214 200 189
348 68 3 354 345 294 250 278 119 39 339 316 289 271 288 305 305 291 300 319 297 276 297 285 290 267 265 246 245 253 277 230 230 262 261 258 251 255 190 214 223 226 211 211 196
357 318 339 346 324 244 263 49 44 36 13 335 319 293 291 293 290 292 284 295 16 339 322 292 279 269 270 235 255 224 236 231 264 263 273 273 268 35 4 254 241 220 216 217 210
1 302 346 9 235 9 13 357 336 356 2 341 301 309 303 310 291 280 273 268 20 342 312 306 292 278 267 270 271 283 273 256 248 256 249 258 264 284 282 220 230 215 213 209 223
340 317 350 23 44 44 359 324 6 1 18 8 311 12 351 298 295 269 279 302 348 333 355 337 268 289 275 248 243 244 248 253 255 264 257 259 263 155 243 259 237 243 233 245 273
337 329 21 48 51 0 358 18 353 23 61 349 314 293 308 283 266 280 290 290 327 315 332 293 261 255 263 275 312 301 282 261 250 236 243 241 262 263 228 205 231 248 276 278 276
358 38 10 341 51 353 303 329 322 334 340 318 277 257 318 289 304 279 293 314 299 279 279 261 275 277 272 275 279 284 295 301 293 256 251 254 249 256 268 275 306 288 291 280 272
357 344 324 291 296 301 139 86 327 348 304 308 261 295 295 287 284 290 292 286 284 289 273 274 270 287 277 278 278 275 258 242 255 280 286 283 268 267 275 279 266 276 268 260 256
14 337 309 221 287 292 40 25 324 316 261 250 294 301 293 298 300 290 282 273 266 272 272 272 269 265 269 282 281 261 255 250 254 240 237 249 261 269 272 292 258 247 254 260 265